| time (UTC) | temp F | wind direction | speed knots | gust knots | rain 1hr in | rain 24hr in | rain mn in | humidity % | barometer mb |
| 20260503051342 | 32 | 323 | 0.0 | 0.0 | 0.00 | 0.02 | 0.02 | 83 | |
| 20260503050821 | 33 | 323 | 0.0 | 0.0 | 0.00 | 0.02 | 0.02 | 83 | |
| 20260503050320 | 33 | 322 | 0.0 | 0.0 | 0.00 | 0.02 | 0.02 | 83 | |
| 20260503045820 | 33 | 322 | 0.0 | 0.0 | 0.00 | 0.02 | 0.02 | 83 | |
| 20260503045321 | 33 | 322 | 0.0 | 0.0 | 0.00 | 0.02 | 0.02 | 83 | |
| 20260503044842 | 33 | 322 | 0.0 | 0.0 | 0.00 | 0.02 | 0.02 | 82 | |
| 20260503044322 | 33 | 320 | 0.0 | 0.0 | 0.00 | 0.02 | 0.02 | 82 | |
| 20260503043822 | 33 | 320 | 0.0 | 0.0 | 0.00 | 0.02 | 0.02 | 82 | |
| 20260503043320 | 34 | 320 | 0.0 | 0.0 | 0.00 | 0.02 | 0.02 | 82 | |
| 20260503042820 | 34 | 320 | 0.0 | 0.0 | 0.00 | 0.02 | 0.02 | 81 | |
| 20260503042321 | 34 | 320 | 0.0 | 0.0 | 0.00 | 0.02 | 0.02 | 81 | |
| 20260503041841 | 34 | 318 | 0.0 | 0.0 | 0.00 | 0.02 | 0.02 | 81 | |
| 20260503041340 | 34 | 318 | 0.0 | 0.0 | 0.00 | 0.02 | 0.02 | 80 | |
| 20260503040818 | 34 | 318 | 0.0 | 0.0 | 0.00 | 0.02 | 0.02 | 80 | |
| 20260503040317 | 35 | 318 | 0.0 | 0.0 | 0.00 | 0.02 | 0.02 | 80 | |
| 20260503035817 | 35 | 318 | 0.0 | 0.0 | 0.00 | 0.02 | 0.02 | 80 | |
| 20260503035336 | 35 | 318 | 0.0 | 0.0 | 0.00 | 0.02 | 0.02 | 79 | |
| 20260503034815 | 35 | 318 | 0.0 | 0.0 | 0.00 | 0.02 | 0.02 | 79 | |
| 20260503034314 | 35 | 318 | 0.0 | 0.0 | 0.00 | 0.02 | 0.02 | 78 | |
| 20260503033833 | 35 | 318 | 0.0 | 0.0 | 0.00 | 0.02 | 0.02 | 78 | |
| 20260503033331 | 36 | 318 | 0.0 | 0.0 | 0.00 | 0.02 | 0.02 | 77 | |
| 20260503032830 | 36 | 317 | 0.0 | 0.0 | 0.00 | 0.05 | 0.02 | 77 | |
| 20260503032330 | 36 | 318 | 0.0 | 0.0 | 0.00 | 0.05 | 0.02 | 77 | |
| 20260503031831 | 36 | 317 | 0.0 | 0.0 | 0.00 | 0.05 | 0.02 | 76 | |
| 20260503031331 | 36 | 317 | 0.0 | 0.0 | 0.00 | 0.05 | 0.02 | 76 | |
| 20260503030851 | 37 | 317 | 0.0 | 0.0 | 0.00 | 0.05 | 0.02 | 75 | |
| 20260503030330 | 37 | 314 | 0.0 | 0.0 | 0.00 | 0.05 | 0.02 | 75 | |
| 20260503025831 | 37 | 314 | 0.0 | 0.0 | 0.00 | 0.05 | 0.02 | 74 | |
| 20260503025330 | 37 | 314 | 0.0 | 0.0 | 0.00 | 0.05 | 0.02 | 72 | |
| 20260503024832 | 38 | 314 | 0.0 | 0.0 | 0.00 | 0.05 | 0.02 | 71 | |
| 20260503024331 | 38 | 314 | 0.0 | 0.0 | 0.00 | 0.05 | 0.02 | 71 | |
| 20260503023830 | 39 | 314 | 0.0 | 0.0 | 0.00 | 0.05 | 0.02 | 70 | |
| 20260503023329 | 39 | 314 | 0.0 | 0.0 | 0.00 | 0.05 | 0.02 | 70 | |
| 20260503022829 | 39 | 314 | 0.0 | 0.0 | 0.00 | 0.07 | 0.02 | 69 | |
| 20260503022329 | 40 | 314 | 0.0 | 0.0 | 0.00 | 0.07 | 0.02 | 68 | |
| 20260503021829 | 40 | 314 | 0.0 | 0.0 | 0.00 | 0.07 | 0.02 | 67 | |
| 20260503021330 | 40 | 314 | 0.0 | 0.0 | 0.00 | 0.07 | 0.02 | 67 | |
| 20260503020829 | 40 | 314 | 0.0 | 0.0 | 0.00 | 0.07 | 0.02 | 67 | |
| 20260503020330 | 40 | 314 | 0.0 | 0.0 | 0.00 | 0.07 | 0.02 | 66 | |
| 20260503015849 | 41 | 314 | 0.0 | 0.0 | 0.00 | 0.07 | 0.02 | 66 | |
| 20260503015327 | 41 | 314 | 0.0 | 0.0 | 0.00 | 0.07 | 0.02 | 66 | |
| 20260503014826 | 41 | 308 | 0.0 | 0.0 | 0.00 | 0.07 | 0.02 | 66 | |
| 20260503014346 | 41 | 307 | 0.0 | 0.0 | 0.00 | 0.07 | 0.02 | 66 | |
| 20260503013826 | 41 | 307 | 0.0 | 1.7 | 0.00 | 0.07 | 0.02 | 65 | |
| 20260503013325 | 41 | 308 | 0.0 | 1.7 | 0.00 | 0.07 | 0.02 | 65 | |
| 20260503012826 | 41 | 308 | 0.0 | 5.2 | 0.00 | 0.10 | 0.02 | 64 | |
| 20260503012326 | 42 | 318 | 1.7 | 5.2 | 0.00 | 0.10 | 0.02 | 64 | |
| 20260503011826 | 42 | 315 | 1.7 | 5.2 | 0.00 | 0.10 | 0.02 | 64 | |
| 20260503011327 | 42 | 295 | 1.7 | 5.2 | 0.00 | 0.10 | 0.02 | 63 | |
| 20260503010826 | 42 | 308 | 0.9 | 3.5 | 0.00 | 0.10 | 0.02 | 63 | |
| 20260503010328 | 42 | 305 | 0.9 | 3.5 | 0.00 | 0.10 | 0.02 | 62 | |
| 20260503005825 | 42 | 300 | 0.0 | 1.7 | 0.00 | 0.10 | 0.02 | 62 | |
| 20260503005343 | 43 | 291 | 0.0 | 1.7 | 0.00 | 0.10 | 0.02 | 61 | |
| 20260503004823 | 43 | 291 | 0.0 | 0.9 | 0.00 | 0.10 | 0.02 | 62 | |
| 20260503004324 | 43 | 287 | 0.0 | 2.6 | 0.00 | 0.10 | 0.02 | 61 | |
| 20260503003844 | 43 | 289 | 0.9 | 4.3 | 0.00 | 0.10 | 0.02 | 61 | |
| 20260503003343 | 43 | 288 | 1.7 | 4.3 | 0.00 | 0.10 | 0.02 | 61 | |
| 20260503002821 | 43 | 311 | 0.0 | 3.5 | 0.00 | 0.10 | 0.02 | 61 | |
| 20260503002341 | 44 | 318 | 0.9 | 3.5 | 0.00 | 0.10 | 0.02 | 60 | |
| 20260503001833 | 44 | 308 | 0.0 | 5.2 | 0.00 | 0.10 | 0.02 | 60 | |
| 20260503001332 | 44 | 314 | 2.6 | 6.1 | 0.00 | 0.10 | 0.02 | 59 | |
| 20260503000852 | 44 | 293 | 0.9 | 6.1 | 0.00 | 0.10 | 0.02 | 57 | |
| 20260503000333 | 44 | 282 | 3.5 | 6.1 | 0.00 | 0.10 | 0.02 | 56 | |
| 20260502235832 | 44 | 284 | 1.7 | 4.3 | 0.00 | 0.10 | 0.02 | 55 | |
| 20260502235354 | 45 | 293 | 0.0 | 3.5 | 0.00 | 0.10 | 0.02 | 54 | |
| 20260502234832 | 45 | 297 | 0.0 | 3.5 | 0.00 | 0.10 | 0.02 | 54 | |
| 20260502234330 | 45 | 281 | 0.0 | 2.6 | 0.00 | 0.10 | 0.02 | 54 | |
| 20260502233830 | 45 | 301 | 0.0 | 2.6 | 0.00 | 0.10 | 0.02 | 53 | |
| 20260502233350 | 45 | 300 | 0.9 | 2.6 | 0.00 | 0.10 | 0.02 | 53 | |
| 20260502232829 | 45 | 299 | 0.0 | 4.3 | 0.00 | 0.10 | 0.02 | 52 | |
| 20260502232329 | 45 | 305 | 0.9 | 7.0 | 0.00 | 0.10 | 0.02 | 52 | |
| 20260502231831 | 45 | 279 | 3.5 | 7.0 | 0.00 | 0.10 | 0.02 | 52 | |
| 20260502231330 | 45 | 287 | 0.9 | 6.1 | 0.00 | 0.10 | 0.02 | 52 | |
| 20260502230830 | 46 | 286 | 4.3 | 6.1 | 0.00 | 0.10 | 0.02 | 51 | |
| 20260502230332 | 46 | 320 | 2.6 | 6.1 | 0.00 | 0.10 | 0.02 | 52 | |
| 20260502225851 | 46 | 264 | 4.3 | 7.0 | 0.00 | 0.10 | 0.02 | 51 | |
| 20260502225329 | 46 | 281 | 1.7 | 7.0 | 0.00 | 0.10 | 0.02 | 51 | |
| 20260502224830 | 46 | 316 | 3.5 | 7.8 | 0.00 | 0.10 | 0.02 | 50 | |
| 20260502224331 | 46 | 278 | 4.3 | 8.7 | 0.00 | 0.10 | 0.02 | 49 | |
| 20260502223830 | 46 | 216 | 3.5 | 8.7 | 0.00 | 0.10 | 0.02 | 49 | |
| 20260502223329 | 46 | 307 | 4.3 | 7.8 | 0.00 | 0.10 | 0.02 | 50 | |
| 20260502222848 | 46 | 278 | 2.6 | 9.6 | 0.00 | 0.10 | 0.02 | 49 | |
| 20260502222326 | 46 | 285 | 5.2 | 9.6 | 0.00 | 0.10 | 0.02 | 49 | |
| 20260502221828 | 46 | 316 | 5.2 | 8.7 | 0.00 | 0.10 | 0.02 | 49 | |
| 20260502221326 | 46 | 296 | 5.2 | 9.6 | 0.00 | 0.10 | 0.02 | 48 | |
| 20260502220827 | 47 | 287 | 5.2 | 9.6 | 0.00 | 0.10 | 0.02 | 48 | |
| 20260502220326 | 46 | 282 | 3.5 | 7.8 | 0.00 | 0.10 | 0.02 | 48 | |
| 20260502215825 | 46 | 307 | 2.6 | 9.6 | 0.00 | 0.10 | 0.02 | 48 | |
| 20260502215324 | 46 | 320 | 4.3 | 10.4 | 0.00 | 0.10 | 0.02 | 48 | |
| 20260502214824 | 47 | 268 | 5.2 | 10.4 | 0.00 | 0.10 | 0.02 | 47 | |
| 20260502214323 | 47 | 247 | 4.3 | 9.6 | 0.00 | 0.10 | 0.02 | 47 | |
| 20260502213823 | 47 | 279 | 2.6 | 9.6 | 0.00 | 0.10 | 0.02 | 47 | |
| 20260502213342 | 47 | 282 | 2.6 | 9.6 | 0.00 | 0.10 | 0.02 | 46 | |
| 20260502212822 | 47 | 265 | 5.2 | 9.6 | 0.00 | 0.10 | 0.02 | 45 | |
| 20260502212342 | 48 | 290 | 5.2 | 8.7 | 0.00 | 0.10 | 0.02 | 44 | |
| 20260502211821 | 48 | 324 | 2.6 | 9.6 | 0.00 | 0.10 | 0.02 | 44 | |
| 20260502211321 | 48 | 319 | 4.3 | 9.6 | 0.00 | 0.10 | 0.02 | 43 | |
| 20260502210840 | 49 | 291 | 3.5 | 9.6 | 0.00 | 0.10 | 0.02 | 42 | |
| 20260502210320 | 49 | 257 | 3.5 | 9.6 | 0.00 | 0.10 | 0.02 | 42 | |
| 20260502205835 | 49 | 258 | 2.6 | 9.6 | 0.00 | 0.10 | 0.02 | 42 | |
| 20260502205355 | 49 | 269 | 2.6 | 7.8 | 0.00 | 0.10 | 0.02 | 42 | |
| 20260502204854 | 49 | 285 | 3.5 | 10.4 | 0.00 | 0.10 | 0.02 | 42 | |
| 20260502204353 | 49 | 267 | 5.2 | 10.4 | 0.00 | 0.10 | 0.02 | 41 | |
| 20260502203832 | 49 | 258 | 3.5 | 8.7 | 0.00 | 0.10 | 0.02 | 41 | |
| 20260502203333 | 49 | 280 | 3.5 | 8.7 | 0.00 | 0.10 | 0.02 | 42 | |
| 20260502202831 | 49 | 316 | 1.7 | 8.7 | 0.00 | 0.10 | 0.02 | 42 | |
| 20260502202331 | 49 | 231 | 4.3 | 10.4 | 0.00 | 0.10 | 0.02 | 41 | |
| 20260502201829 | 49 | 320 | 5.2 | 11.3 | 0.00 | 0.10 | 0.02 | 42 | |
| 20260502201329 | 49 | 272 | 5.2 | 10.4 | 0.00 | 0.10 | 0.02 | 42 | |
| 20260502200830 | 49 | 269 | 5.2 | 10.4 | 0.00 | 0.10 | 0.02 | 43 | |
| 20260502200350 | 48 | 278 | 1.7 | 8.7 | 0.00 | 0.10 | 0.02 | 44 | |
| 20260502195827 | 48 | 316 | 1.7 | 7.8 | 0.00 | 0.10 | 0.02 | 44 | |
| 20260502195327 | 48 | 277 | 5.2 | 8.7 | 0.00 | 0.10 | 0.02 | 43 | |
| 20260502194826 | 48 | 337 | 4.3 | 10.4 | 0.00 | 0.10 | 0.02 | 43 | |
| 20260502194326 | 49 | 239 | 4.3 | 10.4 | 0.00 | 0.10 | 0.02 | 42 | |
| 20260502193826 | 50 | 232 | 4.3 | 9.6 | 0.00 | 0.10 | 0.02 | 42 | |
| 20260502193327 | 50 | 224 | 0.0 | 7.0 | 0.00 | 0.10 | 0.02 | 42 | |
| 20260502192825 | 49 | 169 | 0.0 | 7.0 | 0.00 | 0.10 | 0.02 | 44 | |
| 20260502192327 | 49 | 199 | 2.6 | 9.6 | 0.00 | 0.10 | 0.02 | 43 | |
| 20260502191827 | 49 | 236 | 3.5 | 10.4 | 0.00 | 0.10 | 0.02 | 44 | |
| 20260502191324 | 48 | 241 | 0.0 | 7.0 | 0.00 | 0.10 | 0.02 | 45 | |
| 20260502190825 | 49 | 282 | 4.3 | 8.7 | 0.00 | 0.10 | 0.02 | 46 | |
| 20260502190324 | 48 | 225 | 4.3 | 8.7 | 0.00 | 0.10 | 0.02 | 44 | |
| 20260502185825 | 48 | 261 | 4.3 | 7.8 | 0.00 | 0.10 | 0.02 | 44 | |
| 20260502185325 | 48 | 264 | 3.5 | 7.8 | 0.00 | 0.10 | 0.02 | 46 | |
| 20260502184825 | 48 | 270 | 3.5 | 7.0 | 0.00 | 0.10 | 0.02 | 45 | |
| 20260502184325 | 48 | 325 | 4.3 | 9.6 | 0.00 | 0.10 | 0.02 | 46 | |
| 20260502183826 | 48 | 297 | 5.2 | 9.6 | 0.00 | 0.10 | 0.02 | 46 | |
| 20260502183323 | 48 | 238 | 1.7 | 5.2 | 0.00 | 0.10 | 0.02 | 46 | |
| 20260502182844 | 48 | 296 | 1.7 | 6.1 | 0.00 | 0.10 | 0.02 | 47 | |
| 20260502182323 | 47 | 300 | 2.6 | 7.0 | 0.00 | 0.10 | 0.02 | 47 | |
| 20260502181822 | 48 | 248 | 2.6 | 7.0 | 0.00 | 0.10 | 0.02 | 46 | |
| 20260502181343 | 48 | 295 | 4.3 | 8.7 | 0.00 | 0.10 | 0.02 | 46 | |
| 20260502180822 | 48 | 255 | 3.5 | 8.7 | 0.00 | 0.10 | 0.02 | 46 | |
| 20260502180320 | 48 | 234 | 3.5 | 7.8 | 0.00 | 0.10 | 0.02 | 46 | |
| 20260502170315 | 48 | 284 | 6.1 | 11.3 | 0.00 | 0.10 | 0.02 | 44 | |
| 20260502164329 | 48 | 253 | 7.0 | 12.2 | 0.00 | 0.10 | 0.02 | 44 | |
| 20260502163829 | 49 | 298 | 6.1 | 9.6 | 0.00 | 0.10 | 0.02 | 45 | |
| 20260502163330 | 48 | 236 | 4.3 | 13.9 | 0.00 | 0.10 | 0.02 | 45 | |
| 20260502162852 | 48 | 288 | 7.8 | 13.9 | 0.00 | 0.10 | 0.02 | 45 | |
| 20260502162331 | 47 | 274 | 4.3 | 9.6 | 0.00 | 0.10 | 0.02 | 47 | |
| 20260502161830 | 47 | 283 | 1.7 | 10.4 | 0.00 | 0.10 | 0.02 | 48 | |
| 20260502161352 | 47 | 337 | 4.3 | 10.4 | 0.00 | 0.10 | 0.02 | 48 | |
| 20260502160828 | 48 | 291 | 4.3 | 10.4 | 0.00 | 0.10 | 0.02 | 48 | |
| 20260502160327 | 48 | 316 | 4.3 | 9.6 | 0.00 | 0.10 | 0.02 | 48 | |
| 20260502152324 | 48 | 231 | 1.7 | 9.6 | 0.00 | 0.10 | 0.02 | 47 | |
| 20260502151824 | 48 | 14 | 4.3 | 9.6 | 0.00 | 0.10 | 0.02 | 49 | |
| 20260502151324 | 47 | 270 | 1.7 | 9.6 | 0.00 | 0.10 | 0.02 | 50 | |
| 20260502150824 | 47 | 273 | 4.3 | 7.8 | 0.00 | 0.10 | 0.02 | 50 | |
| 20260502150344 | 46 | 239 | 3.5 | 11.3 | 0.00 | 0.10 | 0.02 | 51 | |
| 20260502130328 | 43 | 235 | 0.0 | 3.5 | 0.00 | 0.10 | 0.02 | 77 | |
| 20260502123341 | 42 | 305 | 0.0 | 4.3 | 0.00 | 0.10 | 0.02 | 83 | |
| 20260502122819 | 42 | 280 | 1.7 | 5.2 | 0.00 | 0.10 | 0.02 | 83 | |
| 20260502122320 | 41 | 226 | 0.9 | 5.2 | 0.00 | 0.10 | 0.02 | 82 | |
| 20260502121819 | 41 | 300 | 0.9 | 7.8 | 0.00 | 0.10 | 0.02 | 83 | |
| 20260502121318 | 41 | 237 | 3.5 | 7.8 | 0.00 | 0.10 | 0.02 | 83 | |
| 20260502120838 | 41 | 305 | 1.7 | 7.0 | 0.00 | 0.10 | 0.02 | 85 | |
| 20260502120316 | 41 | 310 | 2.6 | 7.0 | 0.00 | 0.10 | 0.02 | 85 | |
| 20260502115816 | 41 | 228 | 0.9 | 3.5 | 0.00 | 0.10 | 0.02 | 85 | |
| 20260502115316 | 41 | 212 | 0.9 | 4.3 | 0.00 | 0.10 | 0.02 | 86 | |
| 20260502114817 | 41 | 282 | 0.9 | 4.3 | 0.00 | 0.10 | 0.02 | 86 | |
| 20260502114315 | 41 | 218 | 0.0 | 0.0 | 0.00 | 0.10 | 0.02 | 87 | |
| 20260502113815 | 41 | 256 | 0.0 | 0.0 | 0.00 | 0.10 | 0.02 | 87 | |
| 20260502113315 | 40 | 216 | 0.0 | 1.7 | 0.00 | 0.10 | 0.02 | 87 | |
| 20260502112834 | 40 | 232 | 0.0 | 1.7 | 0.00 | 0.10 | 0.02 | 87 | |
| 20260502112354 | 40 | 250 | 0.0 | 3.5 | 0.00 | 0.10 | 0.02 | 87 | |
| 20260502111833 | 40 | 254 | 0.9 | 3.5 | 0.00 | 0.10 | 0.02 | 88 | |
| 20260502111314 | 40 | 260 | 0.9 | 2.6 | 0.00 | 0.10 | 0.02 | 88 | |
| 20260502110813 | 40 | 231 | 0.0 | 2.6 | 0.00 | 0.10 | 0.02 | 88 | |
| 20260502110332 | 40 | 224 | 0.0 | 1.7 | 0.00 | 0.10 | 0.02 | 88 | |
| 20260502105854 | 40 | 225 | 0.0 | 1.7 | 0.00 | 0.10 | 0.02 | 88 | |
| 20260502105332 | 40 | 216 | 0.0 | 1.7 | 0.00 | 0.10 | 0.02 | 88 | |
| 20260502104832 | 40 | 228 | 0.0 | 1.7 | 0.00 | 0.10 | 0.02 | 88 | |
| 20260502104333 | 40 | 231 | 0.0 | 3.5 | 0.00 | 0.10 | 0.02 | 88 | |
| 20260502103833 | 40 | 229 | 0.0 | 3.5 | 0.00 | 0.10 | 0.02 | 88 | |
| 20260502103352 | 40 | 222 | 0.9 | 3.5 | 0.00 | 0.10 | 0.02 | 88 | |
| 20260502102832 | 40 | 243 | 0.0 | 3.5 | 0.00 | 0.10 | 0.02 | 88 | |
| 20260502102333 | 40 | 235 | 0.9 | 3.5 | 0.00 | 0.10 | 0.02 | 89 | |
| 20260502101831 | 40 | 226 | 1.7 | 3.5 | 0.00 | 0.10 | 0.02 | 89 | |
| 20260502101331 | 40 | 204 | 0.0 | 2.6 | 0.00 | 0.10 | 0.02 | 89 | |
| 20260502100831 | 40 | 171 | 0.9 | 2.6 | 0.00 | 0.10 | 0.02 | 89 | |
| 20260502100350 | 40 | 211 | 0.9 | 3.5 | 0.00 | 0.10 | 0.02 | 89 | |
| 20260502091327 | 40 | 181 | 0.9 | 3.5 | 0.00 | 0.10 | 0.02 | 89 | |
| 20260502090849 | 40 | 236 | 0.0 | 2.6 | 0.00 | 0.10 | 0.02 | 89 | |
| 20260502090328 | 40 | 239 | 0.0 | 2.6 | 0.00 | 0.10 | 0.02 | 89 | |
| 20260502071314 | 41 | 306 | 2.6 | 8.7 | 0.01 | 0.09 | 0.01 | 89 | |
| 20260502070833 | 41 | 273 | 4.3 | 9.6 | 0.01 | 0.09 | 0.01 | 89 | |
| 20260502070334 | 41 | 280 | 3.5 | 9.6 | 0.01 | 0.09 | 0.01 | 89 | |
| 20260502065833 | 42 | 284 | 4.3 | 7.8 | 0.01 | 0.09 | 0.01 | 89 | |
| 20260502065352 | 42 | 276 | 2.6 | 6.1 | 0.01 | 0.09 | 0.01 | 89 | |
| 20260502064830 | 43 | 222 | 3.5 | 6.1 | 0.01 | 0.09 | 0.01 | 89 | |
| 20260502064330 | 44 | 252 | 1.7 | 4.3 | 0.01 | 0.09 | 0.01 | 90 | |
| 20260502063831 | 44 | 227 | 0.0 | 1.7 | 0.01 | 0.09 | 0.01 | 90 | |
| 20260502063330 | 44 | 216 | 0.0 | 2.6 | 0.00 | 0.08 | 0.00 | 90 | |
| 20260502062830 | 44 | 216 | 0.0 | 2.6 | 0.00 | 0.08 | 0.00 | 90 | |
| 20260502062329 | 44 | 238 | 0.0 | 0.0 | 0.00 | 0.08 | 0.00 | 90 | |
| 20260502061830 | 44 | 200 | 0.0 | 0.0 | 0.00 | 0.08 | 0.00 | 91 | |
| 20260502061330 | 44 | 197 | 0.0 | 0.0 | 0.00 | 0.08 | 0.00 | 91 | |
| 20260502060829 | 44 | 197 | 0.0 | 0.0 | 0.00 | 0.08 | 0.00 | 91 | |
| 20260502060329 | 44 | 201 | 0.0 | 0.0 | 0.00 | 0.08 | 0.00 | 91 | |
| 20260502055830 | 44 | 214 | 0.0 | 0.0 | 0.00 | 0.08 | 0.00 | 91 | |
| 20260502055330 | 44 | 214 | 0.0 | 0.0 | 0.00 | 0.08 | 0.00 | 91 | |
| 20260502054829 | 44 | 214 | 0.0 | 0.0 | 0.00 | 0.08 | 0.00 | 90 | |
| 20260502054329 | 44 | 218 | 0.0 | 0.0 | 0.00 | 0.08 | 0.00 | 90 | |
| 20260502053829 | 44 | 200 | 0.0 | 0.0 | 0.00 | 0.08 | 0.00 | 90 | |
| 20260502053328 | 44 | 227 | 0.0 | 0.0 | 0.00 | 0.08 | 0.00 | 90 | |
| 20260502052847 | 44 | 226 | 0.0 | 0.0 | 0.00 | 0.08 | 0.08 | 90 | |
| 20260502052347 | 44 | 226 | 0.0 | 0.0 | 0.00 | 0.08 | 0.08 | 90 | |
| 20260502051825 | 44 | 226 | 0.0 | 0.9 | 0.00 | 0.08 | 0.08 | 90 |